GW3011 Weather Reports


time (UTC)temp
C
wind
direction
speed
KPH
gust
KPH
rain 1hr
cm
rain 24hr
cm
rain mn
cm
humidity
%
barometer
mb
20260506002943 19 316 1.6 4.8 0.00 0.00 0.00 64 1009.0
20260506002439 19 58 4.8 9.7 0.00 0.00 0.00 63 1009.0
20260506001934 19 301 1.6 1.6 0.00 0.00 0.00 64 1008.8
20260506001432 19 305 0.0 1.6 0.00 0.00 0.00 63 1008.8
20260506000929 19 6 6.4 9.7 0.00 0.00 0.00 63 1008.8
20260506000427 20 80 4.8 6.4 0.00 0.00 0.00 63 1008.8
20260505235923 20 61 4.8 6.4 0.00 0.00 0.00 63 1008.8
20260505235421 20 36 3.2 3.2 0.00 0.00 0.00 61 1008.7
20260505234918 20 312 3.2 3.2 0.00 0.00 0.00 59 1008.7
20260505234415 21 53 3.2 6.4 0.00 0.00 0.00 59 1008.4
20260505233912 21 301 6.4 9.7 0.00 0.00 0.00 59 1008.3
20260505233410 20 332 3.2 6.4 0.00 0.00 0.00 60 1008.3
20260505232907 20 356 3.2 3.2 0.00 0.00 0.00 61 1008.0
20260505232405 20 17 6.4 6.4 0.00 0.00 0.00 61 1008.1
20260505231901 20 37 4.8 6.4 0.00 0.00 0.00 60 1007.9
20260505231359 20 68 3.2 4.8 0.00 0.00 0.00 61 1008.0
20260505230857 20 123 6.4 6.4 0.00 0.00 0.00 61 1007.9
20260505230354 20 42 6.4 11.3 0.00 0.00 0.00 62 1007.8
20260505225851 20 32 9.7 11.3 0.00 0.00 0.00 62 1008.0
20260505225348 20 11 8.0 9.7 0.00 0.00 0.00 61 1007.9
20260505224843 21 300 6.4 9.7 0.00 0.00 0.00 60 1007.8
20260505224341 21 43 4.8 6.4 0.00 0.00 0.00 59 1007.7
20260505223838 21 355 9.7 11.3 0.00 0.00 0.00 58 1007.7
20260505223335 22 24 14.5 17.7 0.00 0.00 0.00 57 1007.6
20260505222830 22 95 9.7 16.1 0.00 0.00 0.00 55 1007.6
20260505222327 22 286 6.4 11.3 0.00 0.00 0.00 52 1007.5
20260505221824 24 5 4.8 6.4 0.00 0.00 0.00 51 1007.4
20260505221321 25 22 3.2 4.8 0.00 0.00 0.00 45 1007.4
20260505220818 25 262 6.4 9.7 0.00 0.00 0.00 44 1007.3
20260505220315 25 47 8.0 11.3 0.00 0.00 0.00 47 1007.2
20260505215813 25 125 3.2 6.4 0.00 0.00 0.00 43 1007.2
20260505215310 25 121 8.0 12.9 0.00 0.00 0.00 44 1007.3
20260505214808 25 286 1.6 1.6 0.00 0.00 0.00 47 1007.2
20260505214306 26 330 4.8 9.7 0.00 0.00 0.00 46 1007.4
20260505213802 26 307 3.2 3.2 0.00 0.00 0.00 41 1007.2
20260505213300 27 228 1.6 3.2 0.00 0.00 0.00 38 1007.0
20260505212755 28 278 6.4 11.3 0.00 0.00 0.00 34 1007.1
20260505212253 28 99 14.5 17.7 0.00 0.00 0.00 34 1007.2
20260505211749 27 287 3.2 3.2 0.00 0.00 0.00 35 1007.0
20260505211247 26 210 8.0 12.9 0.00 0.00 0.00 40 1007.0
20260505210743 27 319 1.6 3.2 0.00 0.00 0.00 43 1007.2
20260505210240 28 167 3.2 9.7 0.00 0.00 0.00 34 1007.0
20260505205737 28 168 9.7 17.7 0.00 0.00 0.00 34 1006.8
20260505205236 25 219 4.8 11.3 0.00 0.00 0.00 38 1006.9
20260505204732 24 18 8.0 11.3 0.00 0.00 0.00 48 1006.7
20260505204230 25 168 4.8 6.4 0.00 0.00 0.00 44 1007.0
20260505203726 25 85 4.8 6.4 0.00 0.00 0.00 47 1006.9
20260505203224 27 51 4.8 6.4 0.00 0.00 0.00 40 1007.0
20260505202719 28 349 4.8 6.4 0.00 0.00 0.00 31 1007.0
20260505202216 26 277 9.7 20.9 0.00 0.00 0.00 36 1006.9
20260505201712 24 21 8.0 11.3 0.00 0.00 0.00 49 1007.1
20260505201210 24 44 9.7 12.9 0.00 0.00 0.00 51 1007.1
20260505200708 24 345 9.7 12.9 0.00 0.00 0.00 51 1007.1
20260505200205 25 299 1.6 1.6 0.00 0.00 0.00 50 1007.5
20260505195700 24 291 6.4 9.7 0.00 0.00 0.00 51 1007.2
20260505195158 24 32 8.0 11.3 0.00 0.00 0.00 50 1007.2
20260505194655 23 40 4.8 9.7 0.00 0.00 0.00 52 1007.4
20260505194151 23 54 3.2 9.7 0.00 0.00 0.00 52 1007.6
20260505193648 23 307 3.2 3.2 0.00 0.00 0.00 53 1007.3
20260505193145 24 290 3.2 3.2 0.00 0.00 0.00 53 1007.7
20260505192643 23 82 4.8 6.4 0.00 0.00 0.00 55 1007.8
20260505192141 23 32 4.8 6.4 0.00 0.00 0.00 54 1007.9
20260505191639 24 71 8.0 11.3 0.00 0.00 0.00 52 1008.0
20260505191137 25 73 9.7 11.3 0.00 0.00 0.00 52 1008.2
20260505190632 24 308 3.2 4.8 0.00 0.00 0.00 52 1008.2
20260505190127 23 29 4.8 6.4 0.00 0.00 0.00 54 1008.2
20260505185624 23 338 6.4 9.7 0.00 0.00 0.00 55 1008.4
20260505185121 23 333 9.7 12.9 0.00 0.00 0.00 55 1008.4
20260505184617 22 337 6.4 6.4 0.00 0.00 0.00 56 1008.5
20260505184114 22 358 8.0 9.7 0.00 0.00 0.00 57 1008.6
20260505183611 23 268 6.4 11.3 0.00 0.00 0.00 55 1008.8
20260505183109 23 57 9.7 11.3 0.00 0.00 0.00 54 1008.8
20260505182604 23 169 8.0 12.9 0.00 0.00 0.00 55 1009.0
20260505182102 23 301 1.6 1.6 0.00 0.00 0.00 53 1008.9
20260505181558 23 38 6.4 9.7 0.00 0.00 0.00 52 1008.9
20260505181056 23 61 11.3 12.9 0.00 0.00 0.00 53 1009.0
20260505180551 23 318 4.8 4.8 0.00 0.00 0.00 53 1008.9
20260505180049 25 105 9.7 11.3 0.00 0.00 0.00 50 1009.0
20260505175544 24 99 3.2 3.2 0.00 0.00 0.00 51 1008.8
20260505175041 23 321 4.8 9.7 0.00 0.00 0.00 53 1009.1
20260505174538 24 25 6.4 9.7 0.00 0.00 0.00 52 1008.7
20260505174034 24 328 6.4 11.3 0.00 0.00 0.00 51 1009.0
20260505173531 25 300 1.6 3.2 0.00 0.00 0.00 50 1009.1
20260505173028 25 324 6.4 9.7 0.00 0.00 0.00 50 1009.0
20260505172526 25 309 3.2 4.8 0.00 0.00 0.00 49 1009.2
20260505172021 25 47 8.0 12.9 0.00 0.00 0.00 48 1009.1
20260505171517 24 119 1.6 3.2 0.00 0.00 0.00 49 1009.1
20260505171014 24 328 3.2 4.8 0.00 0.00 0.00 49 1009.2
20260505170511 25 15 1.6 3.2 0.00 0.00 0.00 49 1009.2
20260505170007 25 36 3.2 6.4 0.00 0.00 0.00 47 1009.3
20260505165502 25 301 1.6 3.2 0.00 0.00 0.00 49 1009.3
20260505164958 25 41 8.0 9.7 0.00 0.00 0.00 48 1009.5
20260505164454 26 335 6.4 9.7 0.00 0.00 0.00 46 1009.7
20260505163952 25 312 1.6 1.6 0.00 0.00 0.00 46 1009.4
20260505163451 25 352 6.4 6.4 0.00 0.00 0.00 47 1009.6
20260505162950 26 312 0.0 0.0 0.00 0.00 0.00 44 1009.6
20260505162445 25 305 0.0 0.0 0.00 0.00 0.00 48 1009.7
20260505161942 25 312 3.2 4.8 0.00 0.00 0.00 48 1009.8
20260505161439 24 306 3.2 4.8 0.00 0.00 0.00 49 1009.9
20260505160936 24 293 4.8 4.8 0.00 0.00 0.00 49 1010.0
20260505160434 25 356 6.4 9.7 0.00 0.00 0.00 48 1010.0
20260505152904 25 246 3.2 4.8 0.00 0.00 0.00 47 1010.1
20260505152401 24 306 0.0 0.0 0.00 0.00 0.00 48 1010.2
20260505151855 23 291 6.4 9.7 0.00 0.00 0.00 51 1010.2
20260505151352 23 236 6.4 12.9 0.00 0.00 0.00 50 1010.4
20260505150849 23 278 1.6 3.2 0.00 0.00 0.00 51 1010.7
20260505150346 23 109 4.8 6.4 0.00 0.00 0.00 50 1010.5
20260505140311 21 69 6.4 9.7 0.00 0.00 0.00 56 1010.6
20260505130234 19 125 8.0 12.9 0.00 0.00 0.00 63 1010.5
20260505124725 20 168 4.8 9.7 0.00 0.00 0.00 59 1010.4
20260505124222 20 97 6.4 9.7 0.00 0.00 0.00 59 1010.6
20260505123717 21 240 4.8 6.4 0.00 0.00 0.00 57 1010.5
20260505123214 20 329 6.4 6.4 0.00 0.00 0.00 58 1010.7
20260505122711 20 161 8.0 9.7 0.00 0.00 0.00 59 1010.4
20260505122208 20 240 3.2 4.8 0.00 0.00 0.00 59 1010.3
20260505121704 20 278 3.2 4.8 0.00 0.00 0.00 60 1010.3
20260505121201 20 284 0.0 1.6 0.00 0.00 0.00 60 1010.3
20260505120657 20 282 4.8 6.4 0.00 0.00 0.00 61 1010.2
20260505120154 19 205 3.2 4.8 0.00 0.00 0.00 63 1010.2
20260505115647 20 345 3.2 3.2 0.00 0.00 0.00 61 1010.4
20260505115145 19 24 1.6 1.6 0.00 0.00 0.00 61 1010.4
20260505114642 18 196 8.0 11.3 0.00 0.00 0.00 62 1010.5
20260505114138 18 152 9.7 11.3 0.00 0.00 0.00 62 1010.5
20260505113635 18 161 6.4 6.4 0.00 0.00 0.00 63 1010.4
20260505113131 18 237 6.4 9.7 0.00 0.00 0.00 63 1010.5
20260505112628 18 198 3.2 4.8 0.00 0.00 0.00 64 1010.6
20260505112126 17 300 1.6 1.6 0.00 0.00 0.00 67 1010.6
20260505111620 17 301 0.0 0.0 0.00 0.00 0.00 69 1010.5
20260505111116 16 194 4.8 6.4 0.00 0.00 0.00 69 1010.4
20260505110612 16 307 1.6 1.6 0.00 0.00 0.00 71 1010.5
20260505110109 16 179 3.2 9.7 0.00 0.00 0.00 71 1010.6
20260505102045 15 230 4.8 4.8 0.00 0.00 0.00 74 1010.6
20260505101543 15 208 4.8 4.8 0.00 0.00 0.00 74 1010.5
20260505101039 15 289 3.2 3.2 0.00 0.00 0.00 75 1010.3
20260505100536 15 180 1.6 3.2 0.00 0.00 0.00 74 1009.9
20260505100033 15 139 4.8 6.4 0.00 0.00 0.00 75 1009.9
20260505095529 15 300 0.0 1.6 0.00 0.00 0.00 74 1009.7
20260505095026 15 225 1.6 3.2 0.00 0.00 0.00 74 1009.4
20260505094522 15 308 1.6 1.6 0.00 0.00 0.00 74 1009.6
20260505094019 15 118 4.8 6.4 0.00 0.00 0.00 73 1009.5
20260505093515 15 255 1.6 3.2 0.00 0.00 0.00 73 1009.2
20260505093013 15 194 1.6 3.2 0.00 0.00 0.00 73 1009.5
20260505092510 15 202 3.2 4.8 0.00 0.00 0.00 74 1009.6
20260505092008 15 300 1.6 3.2 0.00 0.00 0.00 74 1009.5
20260505091505 15 297 0.0 1.6 0.00 0.00 0.00 74 1009.6
20260505091003 15 212 3.2 4.8 0.00 0.00 0.00 74 1009.4
20260505090501 15 199 3.2 6.4 0.00 0.00 0.00 74 1009.5
20260505085958 15 284 1.6 3.2 0.00 0.00 0.00 74 1009.5
20260505085456 15 305 0.0 0.0 0.00 0.00 0.00 74 1009.7
20260505084954 15 259 3.2 4.8 0.00 0.00 0.00 73 1009.6
20260505084452 15 294 1.6 1.6 0.00 0.00 0.00 73 1009.7
20260505083949 15 301 1.6 1.6 0.00 0.00 0.00 73 1009.5
20260505083446 15 304 3.2 4.8 0.00 0.00 0.00 72 1009.7
20260505082943 15 306 0.0 0.0 0.00 0.00 0.00 72 1009.6
20260505082438 15 297 4.8 6.4 0.00 0.00 0.00 72 1009.6
20260505081936 15 187 4.8 6.4 0.00 0.00 0.00 72 1009.4
20260505081432 15 241 3.2 3.2 0.00 0.00 0.00 71 1009.6
20260505080929 15 314 1.6 3.2 0.00 0.00 0.00 72 1009.3
20260505080425 15 208 3.2 4.8 0.00 0.00 0.00 72 1009.7
20260505075920 15 297 1.6 1.6 0.00 0.00 0.00 72 1009.7
20260505075418 15 189 3.2 6.4 0.00 0.00 0.00 72 1009.7
20260505074915 15 255 1.6 1.6 0.00 0.00 0.00 72 1009.7
20260505074412 15 283 3.2 4.8 0.00 0.00 0.00 73 1009.5
20260505073909 15 247 4.8 6.4 0.00 0.00 0.00 73 1009.6
20260505073407 15 212 0.0 0.0 0.00 0.00 0.00 74 1009.5
20260505072904 15 166 6.4 9.7 0.00 0.00 0.00 74 1009.7
20260505072400 14 302 1.6 3.2 0.00 0.00 0.00 75 1009.6
20260505071856 13 323 1.6 1.6 0.00 0.00 0.00 77 1009.4
20260505071352 13 298 0.0 0.0 0.00 0.00 0.00 77 1009.3
20260505070851 13 308 0.0 0.0 0.00 0.00 0.00 78 1009.5
20260505070347 13 26 1.6 3.2 0.00 0.00 0.00 78 1009.4
20260505065842 13 318 0.0 1.6 0.00 0.00 0.00 77 1009.4
20260505065339 13 305 0.0 0.0 0.00 0.00 0.00 78 1009.3
20260505064836 13 308 0.0 0.0 0.00 0.00 0.00 78 1009.6
20260505064333 13 312 0.0 0.0 0.00 0.00 0.00 77 1009.3
20260505063832 13 306 0.0 0.0 0.00 0.00 0.00 77 1009.5
20260505063327 13 303 0.0 0.0 0.00 0.00 0.00 76 1009.4
20260505062824 13 305 0.0 0.0 0.00 0.00 0.00 75 1009.5
20260505062322 13 309 0.0 0.0 0.00 0.00 0.00 75 1009.7
20260505061818 14 301 0.0 0.0 0.00 0.00 0.00 75 1009.5
20260505061316 14 316 1.6 1.6 0.00 0.00 0.00 75 1009.6
20260505060814 14 307 0.0 0.0 0.00 0.00 0.00 74 1009.6
20260505060310 14 342 0.0 1.6 0.00 0.00 0.00 74 1009.6
20260505055806 14 310 1.6 1.6 0.00 0.00 0.00 74 1009.8
20260505055303 14 318 0.0 1.6 0.00 0.00 0.00 73 1009.7
20260505054800 14 314 0.0 0.0 0.00 0.00 0.00 73 1009.7
20260505054257 15 324 1.6 1.6 0.00 0.00 0.00 72 1009.8
20260505053755 15 353 1.6 3.2 0.00 0.00 0.00 71 1009.6
20260505053252 15 312 0.0 0.0 0.00 0.00 0.00 71 1009.7
20260505052749 15 307 0.0 0.0 0.00 0.00 0.00 71 1009.7
20260505052246 15 315 0.0 1.6 0.00 0.00 0.00 70 1009.8
20260505051743 15 19 3.2 3.2 0.00 0.00 0.00 70 1009.8
20260505051241 15 283 1.6 1.6 0.00 0.00 0.00 69 1009.9
20260505050738 15 280 3.2 3.2 0.00 0.00 0.00 69 1009.7
20260505050237 15 321 1.6 1.6 0.00 0.00 0.00 68 1009.9
20260505041706 16 301 1.6 3.2 0.00 0.00 0.00 64 1009.9
20260505041204 16 73 3.2 4.8 0.00 0.00 0.00 65 1010.0
20260505040701 16 307 0.0 0.0 0.00 0.00 0.00 65 1010.1
20260505040158 16 319 1.6 3.2 0.00 0.00 0.00 64 1010.2
20260505035654 16 333 1.6 3.2 0.00 0.00 0.00 64 1010.2
20260505035150 16 316 0.0 1.6 0.00 0.00 0.00 65 1010.0
20260505034647 16 290 1.6 1.6 0.00 0.00 0.00 65 1010.0
20260505034144 16 216 6.4 12.9 0.00 0.00 0.00 64 1010.3
20260505033640 16 275 1.6 3.2 0.00 0.00 0.00 64 1010.2
20260505033139 16 124 8.0 12.9 0.00 0.00 0.00 63 1010.3
20260505032637 16 307 3.2 6.4 0.00 0.00 0.00 63 1010.2
20260505032133 16 175 11.3 16.1 0.00 0.00 0.00 62 1010.3
20260505031630 16 322 3.2 3.2 0.00 0.00 0.00 61 1010.2
20260505031126 16 232 3.2 3.2 0.00 0.00 0.00 61 1010.4
20260505030623 16 306 3.2 4.8 0.00 0.00 0.00 61 1010.4
20260505030119 16 141 4.8 11.3 0.00 0.00 0.00 60 1010.4
20260505025614 16 305 9.7 12.9 0.00 0.00 0.00 59 1010.3
20260505025108 16 160 9.7 12.9 0.00 0.00 0.00 58 1010.3
20260505024605 16 172 6.4 11.3 0.00 0.00 0.00 58 1010.4
20260505024103 16 164 8.0 11.3 0.00 0.00 0.00 57 1010.4
20260505023559 17 159 11.3 12.9 0.00 0.00 0.00 57 1010.5
20260505023057 17 39 6.4 11.3 0.00 0.00 0.00 56 1010.3
20260505022554 17 285 8.0 11.3 0.00 0.00 0.00 56 1010.7
20260505022051 17 216 6.4 12.9 0.00 0.00 0.00 55 1010.5
20260505021548 17 80 11.3 12.9 0.00 0.00 0.00 55 1010.6
20260505021045 17 174 8.0 14.5 0.00 0.00 0.00 55 1010.7
20260505020544 17 280 6.4 6.4 0.00 0.00 0.00 55 1010.4
20260505020042 17 4 8.0 16.1 0.00 0.00 0.00 54 1010.5
20260505015538 17 320 11.3 17.7 0.00 0.00 0.00 54 1010.5
20260505015035 17 209 3.2 3.2 0.00 0.00 0.00 54 1010.5
20260505014532 17 314 3.2 4.8 0.00 0.00 0.00 53 1010.3
20260505014030 17 106 14.5 17.7 0.00 0.00 0.00 53 1010.4
20260505013527 17 142 8.0 11.3 0.00 0.00 0.00 53 1010.4
20260505013024 17 162 6.4 11.3 0.00 0.00 0.00 53 1010.1
20260505012522 17 256 6.4 14.5 0.00 0.00 0.00 53 1010.2
20260505012019 17 148 11.3 14.5 0.00 0.00 0.00 53 1010.2
20260505011514 18 258 3.2 4.8 0.00 0.00 0.00 53 1010.2
20260505011012 18 237 8.0 14.5 0.00 0.00 0.00 53 1010.1
20260505010507 18 334 1.6 3.2 0.00 0.00 0.00 53 1010.0
20260505010004 18 216 8.0 11.3 0.00 0.00 0.00 53 1009.9
20260505005500 18 128 11.3 14.5 0.00 0.00 0.00 53 1009.9
20260505004957 18 176 6.4 20.9 0.00 0.00 0.00 54 1009.8
20260505004454 18 260 9.7 14.5 0.00 0.00 0.00 53 1009.8
20260505003951 18 212 4.8 6.4 0.00 0.00 0.00 54 1009.6
20260505003448 18 110 9.7 12.9 0.00 0.00 0.00 55 1009.7